AIQ316 WMKK-VTBD

Flight info

Callsign AIQ316
Flight time N/A
Altitude 36000
Route BIKDU1E BIKDU Y501 RIGTO/N0460F350 M769 DANDO/N0460F360 M769 GOKEX Y96 EMTIX/N0457F350 Y99 HOTEL SABAI3A
Aircraft A21N/M-SDE3FGHIRWY/LB1

Departure

Time 2026-04-30 14:30
Airport Kuala Lumpur International Airport (WMKK)

Arrival

Time N/A
Airport Don Mueang International Airport (VTBD)
Time Latitude Longitude Altitude Speed Heading
2026-04-30 13:32 2.74104 101.68973 38 ft 0 kts 145°
2026-04-30 14:10 2.74104 101.68972 38 ft 0 kts 145°
2026-04-30 14:11 2.74108 101.68969 38 ft 2 kts 145°
2026-04-30 14:11 2.74121 101.68961 37 ft 2 kts 145°
2026-04-30 14:11 2.74133 101.68952 37 ft 2 kts 145°
2026-04-30 14:11 2.74146 101.68943 36 ft 2 kts 153°
2026-04-30 14:12 2.74160 101.68939 36 ft 2 kts 175°
2026-04-30 14:12 2.74175 101.68940 36 ft 2 kts 193°
2026-04-30 14:12 2.74189 101.68945 36 ft 2 kts 211°
2026-04-30 14:12 2.74201 101.68954 36 ft 2 kts 230°
2026-04-30 14:13 2.74205 101.68960 36 ft 1 kts 239°
2026-04-30 14:13 2.74207 101.68963 36 ft 0 kts 236°
2026-04-30 14:19 2.74191 101.68938 35 ft 5 kts 236°
2026-04-30 14:19 2.74164 101.68898 35 ft 8 kts 236°
2026-04-30 14:19 2.74128 101.68846 35 ft 9 kts 235°
2026-04-30 14:20 2.74088 101.68789 35 ft 10 kts 235°
2026-04-30 14:20 2.74046 101.68728 35 ft 10 kts 236°
2026-04-30 14:20 2.73958 101.68597 35 ft 11 kts 236°
2026-04-30 14:21 2.73911 101.68526 35 ft 12 kts 236°
2026-04-30 14:21 2.73862 101.68453 34 ft 12 kts 236°
2026-04-30 14:21 2.73757 101.68301 35 ft 12 kts 236°
2026-04-30 14:22 2.73711 101.68231 37 ft 11 kts 237°
2026-04-30 14:22 2.73590 101.68240 38 ft 11 kts 146°
2026-04-30 14:22 2.73524 101.68284 37 ft 11 kts 146°
2026-04-30 14:23 2.73381 101.68381 37 ft 12 kts 146°
2026-04-30 14:23 2.73228 101.68483 36 ft 13 kts 146°
2026-04-30 14:24 2.73063 101.68593 36 ft 14 kts 146°
2026-04-30 14:24 2.72980 101.68649 36 ft 15 kts 146°
2026-04-30 14:25 2.72774 101.68787 38 ft 19 kts 146°
2026-04-30 14:25 2.72539 101.68945 43 ft 21 kts 146°
2026-04-30 14:26 2.72293 101.69109 43 ft 20 kts 146°
2026-04-30 14:26 2.72167 101.69194 39 ft 21 kts 146°
2026-04-30 14:26 2.71916 101.69363 37 ft 16 kts 146°
2026-04-30 14:27 2.71867 101.69388 39 ft 5 kts 170°
2026-04-30 14:27 2.71838 101.69383 41 ft 3 kts 209°
2026-04-30 14:27 2.71823 101.69372 41 ft 2 kts 223°
2026-04-30 14:28 2.71775 101.69308 39 ft 8 kts 238°
2026-04-30 14:28 2.71761 101.69254 39 ft 8 kts 276°
2026-04-30 14:28 2.71783 101.69193 39 ft 9 kts 299°
2026-04-30 14:28 2.71829 101.69138 38 ft 10 kts 312°
2026-04-30 14:29 2.71862 101.69067 38 ft 0 kts 319°
2026-04-30 14:29 2.71996 101.68973 38 ft 60 kts 326°
2026-04-30 14:30 2.74617 101.67215 853 ft 189 kts 327°
2026-04-30 14:31 2.76792 101.65745 2311 ft 187 kts 327°
2026-04-30 14:31 2.79070 101.64318 3263 ft 207 kts 330°
2026-04-30 14:31 2.80325 101.63528 3616 ft 225 kts 330°
2026-04-30 14:32 2.83524 101.62476 4418 ft 259 kts 353°
2026-04-30 14:32 2.85353 101.62186 4987 ft 270 kts 353°
2026-04-30 14:32 2.87222 101.61868 5777 ft 272 kts 352°
2026-04-30 14:33 2.89077 101.61530 6566 ft 273 kts 352°
2026-04-30 14:33 2.92860 101.60794 7964 ft 280 kts 351°
2026-04-30 14:33 2.94767 101.60411 8620 ft 284 kts 351°
2026-04-30 14:34 2.96718 101.60014 9261 ft 287 kts 351°
2026-04-30 14:34 2.98687 101.59611 9879 ft 291 kts 351°
2026-04-30 14:34 3.00712 101.59196 10446 ft 297 kts 351°
2026-04-30 14:34 3.02771 101.58775 10741 ft 312 kts 351°
2026-04-30 14:35 3.07272 101.57851 11302 ft 342 kts 351°
2026-04-30 14:35 3.09623 101.57365 11786 ft 349 kts 351°
2026-04-30 14:35 3.12036 101.56866 12401 ft 351 kts 351°
2026-04-30 14:36 3.14431 101.56370 12971 ft 354 kts 351°
2026-04-30 14:36 3.16869 101.55867 13518 ft 358 kts 351°
2026-04-30 14:36 3.19342 101.55357 14060 ft 361 kts 351°
2026-04-30 14:36 3.21832 101.54842 14583 ft 365 kts 351°
2026-04-30 14:37 3.24337 101.54324 15070 ft 369 kts 351°
2026-04-30 14:37 3.26876 101.53800 15574 ft 372 kts 351°
2026-04-30 14:37 3.29404 101.53278 16082 ft 375 kts 351°
2026-04-30 14:37 3.31995 101.52742 16578 ft 378 kts 351°
2026-04-30 14:38 3.34570 101.52209 17065 ft 380 kts 351°
2026-04-30 14:38 3.37191 101.51667 17540 ft 383 kts 351°
2026-04-30 14:38 3.39819 101.51124 17997 ft 385 kts 351°
2026-04-30 14:38 3.42447 101.50581 18423 ft 389 kts 351°
2026-04-30 14:39 3.45117 101.50029 18859 ft 391 kts 351°
2026-04-30 14:39 3.47830 101.49469 19282 ft 394 kts 351°
2026-04-30 14:39 3.50523 101.48912 19688 ft 397 kts 351°
2026-04-30 14:40 3.56017 101.47776 20480 ft 403 kts 351°
2026-04-30 14:40 3.58774 101.47205 20868 ft 406 kts 351°
2026-04-30 14:40 3.61545 101.46630 21246 ft 408 kts 351°
2026-04-30 14:40 3.64317 101.46056 21634 ft 410 kts 351°
2026-04-30 14:41 3.67141 101.45470 22010 ft 412 kts 351°
2026-04-30 14:41 3.69969 101.44885 22374 ft 414 kts 351°
2026-04-30 14:41 3.72817 101.44294 22746 ft 416 kts 351°
2026-04-30 14:41 3.75635 101.43711 23112 ft 418 kts 351°
2026-04-30 14:42 3.78518 101.43115 23481 ft 420 kts 351°
2026-04-30 14:42 3.81410 101.42495 23834 ft 423 kts 349°
2026-04-30 14:42 3.84244 101.41717 24180 ft 426 kts 345°
2026-04-30 14:42 3.87051 101.40724 24508 ft 429 kts 340°
2026-04-30 14:43 3.89813 101.39547 24846 ft 432 kts 338°
2026-04-30 14:43 3.92575 101.38317 25173 ft 434 kts 338°
2026-04-30 14:43 3.95344 101.37075 25481 ft 436 kts 338°
2026-04-30 14:43 3.98146 101.35821 25794 ft 438 kts 338°
2026-04-30 14:44 4.00937 101.34574 26111 ft 439 kts 338°
2026-04-30 14:44 4.03719 101.33332 26414 ft 441 kts 338°
2026-04-30 14:44 4.06518 101.32085 26702 ft 442 kts 338°
2026-04-30 14:44 4.09357 101.30821 26987 ft 444 kts 338°
2026-04-30 14:45 4.12197 101.29559 27260 ft 445 kts 338°
2026-04-30 14:45 4.15039 101.28295 27529 ft 447 kts 338°
2026-04-30 14:45 4.17898 101.27025 27805 ft 448 kts 338°
2026-04-30 14:45 4.20778 101.25744 28074 ft 449 kts 338°
2026-04-30 14:46 4.23627 101.24478 28327 ft 450 kts 338°
2026-04-30 14:46 4.26531 101.23286 28585 ft 451 kts 340°
2026-04-30 14:46 4.29462 101.22133 28846 ft 452 kts 340°
2026-04-30 14:46 4.32397 101.20984 29084 ft 454 kts 340°
2026-04-30 14:47 4.35369 101.19813 29322 ft 455 kts 340°
2026-04-30 14:47 4.38337 101.18637 29558 ft 457 kts 340°
2026-04-30 14:47 4.41273 101.17468 29832 ft 457 kts 340°
2026-04-30 14:47 4.44253 101.16280 30173 ft 456 kts 340°
2026-04-30 14:48 4.47185 101.15108 30515 ft 455 kts 340°
2026-04-30 14:48 4.50129 101.13929 30831 ft 454 kts 340°
2026-04-30 14:48 4.53065 101.12753 31151 ft 453 kts 340°
2026-04-30 14:48 4.56028 101.11566 31447 ft 452 kts 340°
2026-04-30 14:49 4.58954 101.10394 31682 ft 453 kts 340°
2026-04-30 14:49 4.61902 101.09211 31899 ft 454 kts 340°
2026-04-30 14:49 4.64820 101.08041 32121 ft 455 kts 340°
2026-04-30 14:49 4.67769 101.06860 32342 ft 456 kts 340°
2026-04-30 14:50 4.73742 101.04467 32787 ft 457 kts 340°
2026-04-30 14:50 4.76702 101.03280 32947 ft 459 kts 340°
2026-04-30 14:51 4.85584 100.99718 32967 ft 459 kts 340°
2026-04-30 14:52 4.94503 100.96138 32979 ft 459 kts 340°
2026-04-30 14:52 5.03417 100.92562 32980 ft 458 kts 340°
2026-04-30 14:53 5.12321 100.88985 32982 ft 458 kts 340°
2026-04-30 14:54 5.24247 100.84197 32968 ft 458 kts 340°
2026-04-30 14:55 5.33129 100.80630 32957 ft 458 kts 340°
2026-04-30 14:56 5.44986 100.75863 32945 ft 457 kts 340°
2026-04-30 14:57 5.53806 100.72317 32934 ft 446 kts 340°
2026-04-30 14:58 5.65118 100.67764 32950 ft 430 kts 340°
2026-04-30 14:58 5.73620 100.64349 32949 ft 446 kts 340°
2026-04-30 15:00 5.88337 100.58424 32944 ft 456 kts 340°
2026-04-30 15:01 6.00179 100.53655 32930 ft 456 kts 340°
2026-04-30 15:01 6.09076 100.50071 32922 ft 455 kts 340°
2026-04-30 15:02 6.14950 100.47702 32919 ft 455 kts 340°
2026-04-30 15:03 6.29671 100.41765 32926 ft 456 kts 340°
2026-04-30 15:04 6.44441 100.35802 32932 ft 455 kts 340°
2026-04-30 15:06 6.59181 100.29842 32935 ft 455 kts 339°
2026-04-30 15:07 6.71440 100.26366 33143 ft 458 kts 354°
2026-04-30 15:07 6.77769 100.26046 33663 ft 454 kts
2026-04-30 15:08 6.84144 100.26584 33924 ft 455 kts
2026-04-30 15:09 6.99911 100.28344 33927 ft 455 kts
2026-04-30 15:10 7.12536 100.29736 33929 ft 454 kts
2026-04-30 15:11 7.31230 100.31798 33925 ft 455 kts
2026-04-30 15:13 7.47008 100.33535 33924 ft 455 kts
2026-04-30 15:14 7.69091 100.34444 33929 ft 455 kts
2026-04-30 15:17 7.96978 100.35073 33924 ft 456 kts
2026-04-30 15:19 8.18374 100.35566 33920 ft 455 kts